Skip Page Navigation
NASA JPL Caltech
NASA Logo - Jet Propulsion Laboratory + View the NASA Portal
+ Near-Earth Object (NEO) Program
Search JPL
JPL Home Earth Solar System Stars & Galaxies Technology
JPL Solar System Dynamics
BODIES ORBITS EPHEMERIDES TOOLS PHYSICAL DATA DISCOVERY FAQ SITE MAP
JPL Small-Body Database Browser
Search: [ help ]  
138175 (2000 EE104)
Classification: Apollo [NEO, PHA]          SPK-ID: 2138175
Ephemeris | Orbit Diagram | Orbital Elements | Physical Parameters | Discovery Circumstances | Close-Approach Data ]

[ hide orbit diagram ]
Orbit Diagram
Note: Make sure you have Java enabled on your browser to see the applet. This applet is provided as a 3D orbit visualization tool. The applet was implemented using 2-body methods, and hence should not be used for determining accurate long-term trajectories (over several years or decades) or planetary encounter circumstances. For accurate long-term ephemerides, please instead use our Horizons system.
Orbit Viewer

Additional Notes: the orbits shown in the applet are color coded. The planets are white lines, and the asteroid/comet is a blue line. The bright white line indicates the portion of the orbit that is above the ecliptic plane, and the darker portion is below the ecliptic plane. Likewise for the asteroid/comet orbit, the light blue indicates the portion above the ecliptic plane, and the dark blue the portion below the ecliptic plane.

Orbit Viewer applet originally written and kindly provided by Osamu Ajiki (AstroArts), and further modified by Ron Baalke (JPL).


Orbital Elements at Epoch 2456400.5 (2013-Apr-18.0) TDB
Reference: JPL 108 (heliocentric ecliptic J2000)
 Element Value Uncertainty (1-sigma)   Units 
e .2934678725935059 4.7184e-07  
a 1.004881292838967 1.191e-08 AU
q .7099809176205039 4.6578e-07 AU
i 5.241770899649466 7.3478e-06 deg
node 25.89428332024042 2.1426e-05 deg
peri 280.8560342327409 2.9038e-05 deg
M 259.5667317638756 5.246e-05 deg
tp 2456503.146858790226
(2013-Jul-29.64685879)
5.5405e-05 JED
period 367.9345481180918
1.01
6.5414e-06
1.791e-08
d
yr
n .9784348924049797 1.7395e-08 deg/d
Q 1.299781668057431 1.5406e-08 AU
  Orbit Determination Parameters
   # obs. used (total)      704  
   # delay obs. used      0  
   # Doppler obs. used      3  
   data-arc span      5059 days (13.85 yr)  
   first obs. used      1999-04-09  
   last obs. used      2013-02-13  
   planetary ephem.      DE405  
   SB-pert. ephem.      SB405-CPV-2  
   condition code      0  
   fit RMS      .62299  
   data source      ORB  
   producer      Otto Matic  
   solution date      2013-Apr-29 15:38:51  

Additional Information
 Earth MOID = .00866645 AU 
 T_jup = 6.015 
[ show covariance matrix ]

Ephemeris | Orbit Diagram | Orbital Elements | Physical Parameters | Discovery Circumstances | Close-Approach Data ]

Physical Parameter Table
Parameter Symbol Value Units Sigma Reference Notes
absolute magnitude H 20.167 mag .84499 108 autocmod 2.5c

138175 (2000 EE104)          Discovered 2000-Mar-11 by CSS at Catalina (703)
Reference: 20061205/Numbers.arcLast Updated: 2006-12-13

[ show close-approach data ]
Ephemeris | Orbit Diagram | Orbital Elements | Physical Parameters | Discovery Circumstances | Close-Approach Data ]
ABOUT SSD CREDITS/AWARDS PRIVACY/COPYRIGHT GLOSSARY LINKS
FirstGov 2013-May-22 07:06 UT
(server date/time)  
NASA Home Page
Site Manager:   Donald K. Yeomans
Webmaster  Alan B. Chamberlin